Regional Weather Roundup
Issued by NWS Sterling, VA

Home | Current Version | Previous Version | Graphics & Text | Print | Product List | Glossary Off
Versions: 1 2 3 4 5 6 7 8 9 10 11 12 13 14 15 16 17 18 19 20 21 22 23 24 25 26 27 28 29 30 31 32 33 34 35 36 37 38 39 40 41 42 43 44 45 46 47 48 49 50

000
ASUS41 KLWX 201810
RWRLWX

REGIONAL WEATHER ROUNDUP
NATIONAL WEATHER SERVICE BALTIMORE MD/WASHINGTON DC
200 PM EDT MON OCT 20 2014

Note: "FAIR" indicates few or no clouds below 12,000 feet
with no significant weather and/or obstructions to visibility.
 TC=TEMPERATURE CELSIUS

 * =Non NWS site. Station does not report precipitation (e.g. rain,
    snow, etc.), thunder, or fog.

DCZ001-MDZ009-015-VAZ040>042-051-053>054-201900-
WASHINGTON METRO

CITY           SKY/WX    TMP DP  RH WIND       PRES   REMARKS
WASHINGTON NAT CLOUDY    67  43  41 S15G21    30.00F
DULLES         PTSUNNY   63  44  50 S10G21    29.97F
ANDREWS AFB    MOSUNNY   66  45  45 S16G25    29.99F
FT BELVOIR     SUNNY     66  45  46 S12G21    29.99F
QUANTICO       MOSUNNY   66  46  48 SW14      30.00F
COLLEGE PARK*  SUNNY     64  43  45 S8        29.99F
LEESBURG*      PTSUNNY   64  45  48 SW8       29.98F
GAITHERSBURG*  MOSUNNY   63  45  51 S9G16     30.01F

$$

MDZ006>007-011-014-201900-
BALTIMORE METRO

CITY           SKY/WX    TMP DP  RH WIND       PRES   REMARKS
BWI AIRPORT    PTSUNNY   64  41  42 SW8       29.99F
MD SCIENCE CTR   N/A     65  40  39 MISG      29.99F
MARTIN STATE   PTSUNNY   64  48  55 SE17      30.02F
ANNAPOLIS      MOSUNNY   63  44  50 S13       30.00F
FORT MEADE*    MOSUNNY   64  41  42 SW14G20   30.02F

$$

MDZ012-015-019>023-201900-
MARYLAND EASTERN SHORE

CITY           SKY/WX    TMP DP  RH WIND       PRES   REMARKS
OCEAN CITY     PTSUNNY   64  42  44 S9G20     30.06F
SALISBURY      MOSUNNY   66  44  45 SW13G21   30.05F
BAY BRIDGE AP*   N/A     63  39  42 S14G20    30.01F
EASTON*        SUNNY     66  43  42 MISG      30.05F

$$

MDZ017>025-201900-
SOUTHERN MARYLAND

CITY           SKY/WX    TMP DP  RH WIND       PRES   REMARKS
PATUXENT RIVER PTSUNNY   65  39  38 SW15      30.02F
ST INIGOES     MOSUNNY   65  40  39 S10       30.02F
LEONARDTOWN*   NOT AVBL

$$

MDZ003>005-201900-
NORTH CENTRAL MARYLAND

CITY           SKY/WX    TMP DP  RH WIND       PRES   REMARKS
FREDERICK*     SUNNY     66  37  34 SW9       30.01F
HAGERSTOWN APT PTSUNNY   60  38  43 S8        29.96F
WESTMINSTER*   MOSUNNY   63  41  45 S14       29.99F

$$

MDZ501>502-201900-
WESTERN MARYLAND

CITY           SKY/WX    TMP DP  RH WIND       PRES   REMARKS
OAKLAND*       NOT AVBL
CUMBERLAND*    CLOUDY    54  37  54 CALM      30.01F

$$

VAZ025>031-201900-
SHENANDOAH VALLEY

CITY           SKY/WX    TMP DP  RH WIND       PRES   REMARKS
WINCHESTER*    PTSUNNY   63  34  34 CALM      29.96F
FRONT ROYAL*   FAIR      64  39  39 SW3       29.95F
LURAY*         FAIR      68  41  37 S10       29.95F
NEW MARKET*    FAIR      65  37  35 S7        29.94F
STAUNTON*      PTSUNNY   66  36  32 S13       29.98F
WAYNESBORO*    FAIR      66  38  35 SW10G18   29.97F

$$

WVZ021-048>050-054>055-201900-
EASTERN WEST VIRGINIA PANHANDLE

CITY           SKY/WX    TMP DP  RH WIND       PRES   REMARKS
MARTINSBURG    PTSUNNY   60  37  42 VRB5      29.97F
PETERSBURG*    CLOUDY   N/A N/A N/A CALM      29.97F

$$

VAZ036>039-050-201900-
CENTRAL FOOTHILLS

CITY           SKY/WX    TMP DP  RH WIND       PRES   REMARKS
CHARLOTTESVILL MOSUNNY   64  46  52 S15       29.98F
CULPEPER*      MOSUNNY   66  46  48 SW12      29.98F
ORANGE*        MOSUNNY   66  46  48 S14G21    30.00F
GORDONSVILLE*  FAIR      65  47  51 SW14      29.98F
WARRENTON*     FAIR      68  52  56 S12G21    29.97F

$$

VAZ055>057-201900-
NORTH AND CENTRAL PIEDMONT

CITY           SKY/WX    TMP DP  RH WIND       PRES   REMARKS
FREDERICKSBRG* SUNNY     69  45  42 S12G21    29.99F
STAFFORD*      MOSUNNY   65  42  42 S10G21    30.03F

$$

NCZ024-NYZ072-PAZ021-071-VAZ022-071-201900-
OTHER REGIONAL OBSERVATIONS

CITY           SKY/WX    TMP DP  RH WIND       PRES   REMARKS
NEW YORK CITY  MOSUNNY   57  34  41 W7        30.06F
PHILADELPHIA   PTSUNNY   62  37  39 S10G21    30.03F
PITTSBURGH     CLOUDY    56  40  55 SW14G23   29.91F
ROANOKE        PTSUNNY   64  45  49 S7        30.01F
RICHMOND       PTSUNNY   67  40  37 S14       30.03F
RALEIGH        MOSUNNY   68  43  40 VRB6      30.06F

$$

ANZ530>537-201900-
MARINE OBSERVATIONS

STATION/POSITION TIME  TEMP    WIND        PRES
                       AIR SEA DIR/SP/G
                 (UTC) (F)     (DEG/KT/KT) (MB)
THOMAS PT LIGHT  1800   61 63  170/ 21/ 24 1016.7F
BALT KEY BRIDGE  1800   62     190/  9/ 12 1015.7R
COVE POINT       1800   61     190/ 15/ 17 1016.9F
LEWISETTA        1800   62 63  210/ 13/ 16 1016.8F
SOLOMONS ISLAND  1800      66                N/A
PINEY POINT      1800          210/ 16/ 18   N/A

$$




USA.gov is the U.S. government's official web portal to all federal, state and local government web resources and services.